[[{"header":{"parameterUnit":"m.s-1","parameterCategory":1,"la1":30.2992,"la2":30.254,"lo1":-89.0895,"lo2":-89.0443,"dy":0.0025,"dx":0.0025,"nx":19,"ny":19,"refTime":"2026-05-22T21:00:00:Z","depth":0,"parameterNumber":2,"parameterNumberName":"U-component_of_WINDS"},"data":[0,0,0,-2.4141,-2.4141,-2.4116,-2.4116,-2.4083,-2.4083,0,0,0,0,0,0,0,0,0,0,0,-2.4149,-2.4148,-2.4141,-2.4141,-2.4116,-2.4116,-2.4083,-2.4083,0,0,0,0,0,0,0,0,0,0,0,-2.4149,-2.4148,-2.4148,-2.414,-2.4116,-2.4116,-2.4083,-2.4102,0,0,0,0,0,0,0,0,0,0,-2.4126,-2.4134,-2.4149,-2.4148,-2.414,-2.4116,-2.4116,-2.4103,-2.4101,-2.4094,0,-2.4089,0,-2.4085,-2.4081,-2.4081,0,0,0,-2.414,-2.4135,-2.4128,-2.4148,-2.414,-2.4116,-2.4127,-2.4102,-2.4099,-2.4091,-2.4088,-2.4087,-2.4085,-2.408,-2.408,-2.4043,-2.4042,0,0,-2.4142,-2.4144,-2.413,-2.4127,-2.4132,-2.4128,-2.4126,-2.41,-2.4097,-2.4088,-2.4086,-2.4084,-2.408,-2.408,-2.4043,-2.4043,0,0,0,-2.4146,-2.4145,-2.4139,-2.4128,-2.4124,-2.4127,-2.4125,-2.4098,-2.4096,-2.4086,-2.4084,-2.408,-2.408,-2.4043,-2.4043,-2.4036,0,0,0,-2.4146,-2.4148,-2.414,-2.4141,-2.4124,-2.4111,-2.4124,-2.4098,-2.4095,-2.4084,-2.408,-2.4079,-2.4043,-2.4043,-2.4037,-2.4032,0,0,0,-2.415,-2.4148,-2.4145,-2.4141,-2.4131,-2.4111,-2.4108,-2.4097,-2.4094,-2.4081,-2.4079,-2.4043,-2.4043,-2.4037,-2.4033,-2.4022,0,0,0,-2.4155,-2.414,-2.4144,-2.4127,-2.4131,-2.4108,-2.4108,-2.4091,-2.4079,-2.408,-2.4043,-2.4043,-2.4037,-2.4034,-2.4022,-2.4011,-2.4008,0,0,-2.4137,-2.4138,-2.4127,-2.4131,-2.4108,-2.4112,-2.4087,-2.4074,-2.4071,-2.4052,-2.4051,-2.4037,-2.4033,-2.4022,-2.3988,-2.3985,0,0,0,-2.4123,-2.4115,-2.4108,-2.4097,-2.4087,-2.4077,-2.4067,-2.4062,-2.4046,-2.4062,-2.403,-2.4028,-2.4021,-2.4016,-2.4013,-2.4006,-2.4041,-2.4041,-2.4041,-2.4102,-2.4097,-2.4079,-2.4072,-2.4061,-2.405,-2.4041,-2.4032,-2.4032,-2.4024,-2.4018,-2.3998,-2.3992,-2.399,-2.3983,-2.4013,-2.4013,-2.4013,-2.4013,-2.4075,-2.4062,-2.4061,-2.4043,-2.4038,-2.4023,-2.4012,-2.4012,-2.3996,-2.4003,-2.3997,-2.4003,-2.3987,-2.398,-2.4013,-2.4013,-2.4013,-2.4013,-2.4013,-2.4059,-2.4052,-2.4046,-2.4028,-2.4015,-2.4008,-2.3992,-2.3989,-2.3986,-2.398,-2.3972,-2.3972,-2.397,-2.3977,-2.3977,-2.3977,-2.3977,-2.3977,-2.3977,-2.4045,-2.4038,-2.4025,-2.4012,-2.4004,-2.3992,-2.398,-2.3972,-2.3961,-2.396,-2.396,-2.3959,-2.3987,-2.3993,-2.3975,-2.3976,-2.3976,-2.3976,-2.3976,-2.4016,-2.4022,-2.4002,-2.3994,-2.3977,-2.3962,-2.3959,-2.3941,-2.3933,-2.3925,-2.3925,-2.3947,-2.3947,-2.3949,-2.3954,-2.3928,-2.3928,-2.3928,-2.3928,-2.4002,-2.4002,-2.398,-2.3966,-2.3952,-2.3946,-2.3922,-2.3912,-2.3903,-2.3898,-2.3901,-2.3908,-2.3911,-2.3909,-2.3912,-2.3916,-2.3881,-2.3881,-2.3881,-2.3983,-2.3981,-2.3962,-2.3953,-2.394,-2.3927,-2.3904,-2.3887,-2.3878,-2.3878,-2.3893,-2.3895,-2.3906,-2.391,-2.391,-2.3914,-2.3922,0,0]},{"header":{"parameterUnit":"m.s-1","parameterCategory":1,"la1":30.2992,"la2":30.254,"lo1":-89.0895,"lo2":-89.0443,"dy":0.0025,"dx":0.0025,"nx":19,"ny":19,"refTime":"2026-05-22T21:00:00:Z","depth":0,"parameterNumber":3,"parameterNumberName":"V-component_of_WINDS"},"data":[0,0,0,3.475,3.4754,3.4949,3.495,3.52,3.5202,0,0,0,0,0,0,0,0,0,0,0,3.4693,3.4694,3.475,3.4755,3.4949,3.495,3.5199,3.5202,0,0,0,0,0,0,0,0,0,0,0,3.4692,3.4694,3.4696,3.4755,3.4949,3.495,3.5199,3.5052,0,0,0,0,0,0,0,0,0,0,3.4863,3.4809,3.4693,3.4696,3.4757,3.4949,3.495,3.5045,3.5061,3.5112,0,3.5157,0,3.5183,3.5219,3.522,0,0,0,3.4755,3.4796,3.4848,3.4696,3.4758,3.4949,3.4861,3.5054,3.5072,3.5133,3.516,3.5169,3.5187,3.522,3.5222,3.5516,3.5517,0,0,3.4744,3.4728,3.4835,3.486,3.483,3.4855,3.4867,3.5065,3.5093,3.5161,3.5175,3.5192,3.5222,3.5224,3.5514,3.5516,0,0,0,3.4713,3.472,3.4768,3.485,3.4885,3.4861,3.4875,3.5084,3.5101,3.5178,3.5195,3.5223,3.5227,3.5513,3.5515,3.5568,0,0,0,3.4707,3.4702,3.4763,3.4755,3.4881,3.4987,3.489,3.5088,3.511,3.5193,3.5224,3.5229,3.5511,3.5514,3.5564,3.5597,0,0,0,3.468,3.4699,3.4727,3.4754,3.4837,3.4984,3.5012,3.5093,3.5121,3.522,3.523,3.551,3.5514,3.5559,3.559,3.5671,0,0,0,3.4647,3.477,3.4728,3.4873,3.4835,3.5015,3.5011,3.5146,3.5237,3.5225,3.5512,3.5515,3.5558,3.5586,3.5666,3.5737,3.5765,0,0,3.4794,3.4788,3.4874,3.4842,3.5025,3.4987,3.5179,3.5278,3.5301,3.5443,3.545,3.5565,3.5589,3.567,3.5922,3.5944,0,0,0,3.4916,3.4978,3.503,3.5117,3.5195,3.5266,3.5337,3.5374,3.5496,3.5371,3.5616,3.5631,3.5679,3.5714,3.5732,3.5776,3.553,3.5529,3.5529,3.5101,3.5126,3.5272,3.5321,3.5405,3.5478,3.5549,3.5611,3.561,3.5668,3.5711,3.5861,3.5901,3.5915,3.596,3.5749,3.5749,3.5749,3.5749,3.5321,3.5414,3.5412,3.5553,3.5579,3.5697,3.5773,3.5769,3.5884,3.583,3.5874,3.5815,3.5938,3.5979,3.5754,3.5753,3.5752,3.5752,3.5752,3.5446,3.5496,3.5539,3.5668,3.5765,3.5809,3.5921,3.594,3.5958,3.6001,3.605,3.6049,3.6052,3.6023,3.6023,3.6024,3.6024,3.6025,3.6025,3.556,3.5607,3.5699,3.5794,3.5853,3.5934,3.6009,3.6068,3.6138,3.6144,3.6144,3.614,3.5945,3.5897,3.6033,3.6032,3.6031,3.603,3.603,3.5777,3.5731,3.5872,3.5932,3.6046,3.6143,3.6165,3.6284,3.6336,3.6391,3.6377,3.6229,3.6224,3.621,3.617,3.637,3.637,3.637,3.637,3.5884,3.5883,3.6033,3.6127,3.6222,3.6257,3.6418,3.6479,3.6534,3.6568,3.6541,3.649,3.6474,3.6479,3.6458,3.6422,3.6681,3.6681,3.6681,3.602,3.6029,3.6162,3.6216,3.6307,3.6385,3.6538,3.6647,3.67,3.6694,3.6595,3.6582,3.6499,3.6471,3.6464,3.6431,3.6365,0,0]}]]